Simultaneous Nadir Overpasses (SNOs) Predictions

Prediction of SNOs between AURA and NPP Satellite Orbit:

Table of predicted SNOs for the next 14.0 days since TLE Epoch: 6/14/2019
Index Date (AURA) Time (AURA) Lat,Lon (AURA) SZA (AURA ) Date (NPP) Time (NPP) Lat,Lon (NPP) SZA (NPP ) Distance(km) Time Diff (sec)
1 06/15/2019 19:08:34 -79.29, -31.77 110.19 06/15/2019 19:07:57 -79.29, -31.83 110.15 1.23 37
2 06/15/2019 19:57:54 79.51, 137.36 69.48 06/15/2019 19:58:35 79.51, 137.23 69.48 2.89 41
3 06/18/2019 11:24:58 -79.46, 85.23 110.50 06/18/2019 11:24:48 -79.47, 85.33 110.51 2.09 10
4 06/18/2019 12:14:18 79.68,-105.60 69.18 06/18/2019 12:15:26 79.68,-105.56 69.13 0.82 68
5 06/21/2019 02:52:05 79.22, 31.92 69.85 06/21/2019 02:51:06 79.22, 31.88 69.90 0.98 59
6 06/21/2019 03:41:25 -79.51,-158.55 110.58 06/21/2019 03:41:43 -79.51,-158.57 110.59 0.55 18
7 06/23/2019 19:08:32 79.27, 148.09 69.82 06/23/2019 19:08:01 79.26, 147.95 69.87 2.91 31
8 06/23/2019 19:57:52 -79.56, -42.35 110.60 06/23/2019 19:58:38 -79.55, -42.47 110.62 2.57 46
9 06/26/2019 11:24:54 79.46, -94.74 69.62 06/26/2019 11:24:50 79.47, -94.64 69.61 2.03 4




NCC Satellite Simultaneous Nadir Overpasses (SNOs) Prediction Service
